Year,Month,Day,Hour,Minute,Value (Times are PST for temperature in C)
2023,04,27,00,00,7.60
2023,04,27,00,01,7.60
2023,04,27,00,02,7.60
2023,04,27,00,03,7.60
2023,04,27,00,04,7.60
2023,04,27,00,05,7.60
2023,04,27,00,06,7.50
2023,04,27,00,07,7.50
2023,04,27,00,08,7.50
2023,04,27,00,09,7.50
2023,04,27,00,11,7.40
2023,04,27,00,12,7.50
2023,04,27,00,13,7.40
2023,04,27,00,15,7.40
2023,04,27,00,16,7.40
2023,04,27,00,17,7.40
2023,04,27,00,18,7.40
2023,04,27,00,19,7.40
2023,04,27,00,21,7.30
2023,04,27,00,22,7.30
2023,04,27,00,24,7.30
2023,04,27,00,25,7.30
2023,04,27,00,26,7.30
2023,04,27,00,27,7.30
2023,04,27,00,28,7.30
2023,04,27,00,29,7.30
2023,04,27,00,30,7.30
2023,04,27,00,31,7.30
2023,04,27,00,33,7.30
2023,04,27,00,34,7.30
2023,04,27,00,36,7.20
2023,04,27,00,37,7.20
2023,04,27,00,38,7.20
2023,04,27,00,39,7.20
2023,04,27,00,40,7.20
2023,04,27,00,41,7.20
2023,04,27,00,42,7.20
2023,04,27,00,43,7.20
2023,04,27,00,44,7.20
2023,04,27,00,45,7.20
2023,04,27,00,46,7.10
2023,04,27,00,47,7.10
2023,04,27,00,48,7.10
2023,04,27,00,49,7.10
2023,04,27,00,50,7.10
2023,04,27,00,51,7.00
2023,04,27,00,52,7.00
2023,04,27,00,53,7.00
2023,04,27,00,54,6.90
2023,04,27,00,55,6.90
2023,04,27,00,56,6.90
2023,04,27,00,57,6.90
2023,04,27,00,58,6.90
2023,04,27,00,59,6.90
2023,04,27,01,00,7.00
2023,04,27,01,01,7.00
2023,04,27,01,02,7.00
2023,04,27,01,04,7.00
2023,04,27,01,05,7.00
2023,04,27,01,06,7.10
2023,04,27,01,07,7.10
2023,04,27,01,08,7.10
2023,04,27,01,09,7.10
2023,04,27,01,10,7.10
2023,04,27,01,11,7.10
2023,04,27,01,12,7.10
2023,04,27,01,13,7.10
2023,04,27,01,14,7.10
2023,04,27,01,15,7.10
2023,04,27,01,16,7.10
2023,04,27,01,17,7.10
2023,04,27,01,18,7.10
2023,04,27,01,19,7.10
2023,04,27,01,20,7.10
2023,04,27,01,21,7.10
2023,04,27,01,22,7.00
2023,04,27,01,23,7.00
2023,04,27,01,24,7.00
2023,04,27,01,25,6.90
2023,04,27,01,26,6.90
2023,04,27,01,27,6.90
2023,04,27,01,28,6.90
2023,04,27,01,29,6.90
2023,04,27,01,30,6.90
2023,04,27,01,31,6.90
2023,04,27,01,32,6.90
2023,04,27,01,33,6.80
2023,04,27,01,34,6.80
2023,04,27,01,35,6.80
2023,04,27,01,36,6.80
2023,04,27,01,37,6.80
2023,04,27,01,38,6.70
2023,04,27,01,39,6.70
2023,04,27,01,40,6.70
2023,04,27,01,41,6.70
2023,04,27,01,42,6.70
2023,04,27,01,43,6.70
2023,04,27,01,44,6.70
2023,04,27,01,45,6.60
2023,04,27,01,46,6.60
2023,04,27,01,47,6.60
2023,04,27,01,48,6.60
2023,04,27,01,49,6.60
2023,04,27,01,50,6.60
2023,04,27,01,51,6.50
2023,04,27,01,52,6.50
2023,04,27,01,53,6.50
2023,04,27,01,54,6.40
2023,04,27,01,55,6.40
2023,04,27,01,56,6.40
2023,04,27,01,57,6.40
2023,04,27,01,58,6.40
2023,04,27,01,59,6.40
2023,04,27,02,00,6.40
2023,04,27,02,01,6.40
2023,04,27,02,02,6.40
2023,04,27,02,03,6.30
2023,04,27,02,04,6.30
2023,04,27,02,05,6.30
2023,04,27,02,06,6.30
2023,04,27,02,07,6.30
2023,04,27,02,08,6.30
2023,04,27,02,09,6.30
2023,04,27,02,10,6.30
2023,04,27,02,11,6.30
2023,04,27,02,12,6.30
2023,04,27,02,13,6.30
2023,04,27,02,14,6.30
2023,04,27,02,15,6.30
2023,04,27,02,16,6.20
2023,04,27,02,17,6.20
2023,04,27,02,18,6.20
2023,04,27,02,19,6.20
2023,04,27,02,20,6.20
2023,04,27,02,21,6.20
2023,04,27,02,22,6.20
2023,04,27,02,23,6.20
2023,04,27,02,24,6.20
2023,04,27,02,25,6.20
2023,04,27,02,26,6.20
2023,04,27,02,27,6.20
2023,04,27,02,28,6.20
2023,04,27,02,29,6.20
2023,04,27,02,30,6.20
2023,04,27,02,31,6.20
2023,04,27,02,32,6.20
2023,04,27,02,33,6.20
2023,04,27,02,34,6.20
2023,04,27,02,35,6.20
2023,04,27,02,36,6.20
2023,04,27,02,37,6.10
2023,04,27,02,38,6.10
2023,04,27,02,39,6.10
2023,04,27,02,40,6.10
2023,04,27,02,41,6.10
2023,04,27,02,42,6.10
2023,04,27,02,43,6.10
2023,04,27,02,44,6.10
2023,04,27,02,45,6.10
2023,04,27,02,46,6.10
2023,04,27,02,47,6.10
2023,04,27,02,48,6.10
2023,04,27,02,49,6.00
2023,04,27,02,50,6.00
2023,04,27,02,51,6.10
2023,04,27,02,52,6.10
2023,04,27,02,53,6.10
2023,04,27,02,54,6.10
2023,04,27,02,55,6.10
2023,04,27,02,56,6.10
2023,04,27,02,57,6.10
2023,04,27,02,58,6.10
2023,04,27,02,59,6.10
2023,04,27,03,00,6.10
2023,04,27,03,01,6.20
2023,04,27,03,02,6.20
2023,04,27,03,03,6.20
2023,04,27,03,04,6.20
2023,04,27,03,05,6.20
2023,04,27,03,06,6.30
2023,04,27,03,07,6.30
2023,04,27,03,08,6.30
2023,04,27,03,09,6.30
2023,04,27,03,10,6.30
2023,04,27,03,11,6.30
2023,04,27,03,12,6.30
2023,04,27,03,13,6.40
2023,04,27,03,14,6.40
2023,04,27,03,15,6.40
2023,04,27,03,16,6.40
2023,04,27,03,17,6.40
2023,04,27,03,18,6.40
2023,04,27,03,19,6.40
2023,04,27,03,20,6.40
2023,04,27,03,21,6.40
2023,04,27,03,22,6.40
2023,04,27,03,23,6.40
2023,04,27,03,24,6.40
2023,04,27,03,25,6.40
2023,04,27,03,26,6.40
2023,04,27,03,27,6.40
2023,04,27,03,28,6.40
2023,04,27,03,29,6.40
2023,04,27,03,30,6.40
2023,04,27,03,31,6.40
2023,04,27,03,32,6.40
2023,04,27,03,33,6.50
2023,04,27,03,34,6.50
2023,04,27,03,35,6.50
2023,04,27,03,36,6.60
2023,04,27,03,37,6.50
2023,04,27,03,38,6.60
2023,04,27,03,39,6.60
2023,04,27,03,40,6.60
2023,04,27,03,41,6.60
2023,04,27,03,42,6.60
2023,04,27,03,43,6.60
2023,04,27,03,44,6.60
2023,04,27,03,45,6.70
2023,04,27,03,46,6.70
2023,04,27,03,47,6.70
2023,04,27,03,48,6.70
2023,04,27,03,49,6.70
2023,04,27,03,50,6.70
2023,04,27,03,51,6.70
2023,04,27,03,52,6.70
2023,04,27,03,53,6.70
2023,04,27,03,54,6.70
2023,04,27,03,55,6.80
2023,04,27,03,56,6.80
2023,04,27,03,57,6.80
2023,04,27,03,58,6.80
2023,04,27,03,59,6.70
2023,04,27,04,00,6.80
2023,04,27,04,01,6.80
2023,04,27,04,02,6.80
2023,04,27,04,03,6.80
2023,04,27,04,04,6.80
2023,04,27,04,05,6.80
2023,04,27,04,06,6.80
2023,04,27,04,07,6.80
2023,04,27,04,08,6.80
2023,04,27,04,09,6.80
2023,04,27,04,10,6.80
2023,04,27,04,11,6.80
2023,04,27,04,12,6.80
2023,04,27,04,13,6.80
2023,04,27,04,14,6.80
2023,04,27,04,15,6.90
2023,04,27,04,16,6.90
2023,04,27,04,17,6.90
2023,04,27,04,18,6.90
2023,04,27,04,19,6.90
2023,04,27,04,20,6.90
2023,04,27,04,21,6.90
2023,04,27,04,22,6.90
2023,04,27,04,23,6.90
2023,04,27,04,24,6.90
2023,04,27,04,25,6.90
2023,04,27,04,26,6.90
2023,04,27,04,27,6.90
2023,04,27,04,28,6.90
2023,04,27,04,29,6.90
2023,04,27,04,30,6.90
2023,04,27,04,31,6.90
2023,04,27,04,32,6.90
2023,04,27,04,33,6.90
2023,04,27,04,34,6.90
2023,04,27,04,35,6.90
2023,04,27,04,36,6.90
2023,04,27,04,37,6.90
2023,04,27,04,38,6.90
2023,04,27,04,39,6.90
2023,04,27,04,40,6.90
2023,04,27,04,41,7.00
2023,04,27,04,42,7.00
2023,04,27,04,43,7.00
2023,04,27,04,44,7.00
2023,04,27,04,45,7.00
2023,04,27,04,46,7.00
2023,04,27,04,47,7.00
2023,04,27,04,48,7.00
2023,04,27,04,49,7.00
2023,04,27,04,50,7.00
2023,04,27,04,51,7.00
2023,04,27,04,52,7.00
2023,04,27,04,53,7.00
2023,04,27,04,54,7.00
2023,04,27,04,55,7.00
2023,04,27,04,56,7.00
2023,04,27,04,57,7.00
2023,04,27,04,58,7.00
2023,04,27,04,59,7.00
2023,04,27,05,00,7.00
2023,04,27,05,01,7.00
2023,04,27,05,02,7.00
2023,04,27,05,03,7.00
2023,04,27,05,04,7.10
2023,04,27,05,05,7.10
2023,04,27,05,06,7.10
2023,04,27,05,07,7.10
2023,04,27,05,08,7.10
2023,04,27,05,09,7.10
2023,04,27,05,10,7.10
2023,04,27,05,11,7.10
2023,04,27,05,12,7.10
2023,04,27,05,13,7.10
2023,04,27,05,14,7.20
2023,04,27,05,15,7.20
2023,04,27,05,16,7.20
2023,04,27,05,17,7.20
2023,04,27,05,18,7.20
2023,04,27,05,19,7.20
2023,04,27,05,20,7.20
2023,04,27,05,21,7.20
2023,04,27,05,22,7.20
2023,04,27,05,23,7.20
2023,04,27,05,24,7.20
2023,04,27,05,25,7.20
2023,04,27,05,26,7.20
2023,04,27,05,27,7.20
2023,04,27,05,28,7.20
2023,04,27,05,29,7.20
2023,04,27,05,30,7.20
2023,04,27,05,31,7.20
2023,04,27,05,32,7.20
2023,04,27,05,33,7.20
2023,04,27,05,34,7.20
2023,04,27,05,35,7.20
2023,04,27,05,36,7.20
2023,04,27,05,37,7.20
2023,04,27,05,38,7.20
2023,04,27,05,39,7.20
2023,04,27,05,40,7.20
2023,04,27,05,41,7.20
2023,04,27,05,42,7.20
2023,04,27,05,43,7.20
2023,04,27,05,44,7.20
2023,04,27,05,45,7.20
2023,04,27,05,46,7.20
2023,04,27,05,47,7.20
2023,04,27,05,48,7.20
2023,04,27,05,49,7.20
2023,04,27,05,50,7.30
2023,04,27,05,51,7.30
2023,04,27,05,52,7.20
2023,04,27,05,53,7.20
2023,04,27,05,54,7.30
2023,04,27,05,55,7.20
2023,04,27,05,56,7.20
2023,04,27,05,57,7.20
2023,04,27,05,58,7.20
2023,04,27,05,59,7.20
2023,04,27,06,00,7.20
2023,04,27,06,01,7.20
2023,04,27,06,02,7.20
2023,04,27,06,03,7.20
2023,04,27,06,04,7.20
2023,04,27,06,05,7.20
2023,04,27,06,06,7.20
2023,04,27,06,07,7.20
2023,04,27,06,08,7.20
2023,04,27,06,09,7.20
2023,04,27,06,10,7.20
2023,04,27,06,11,7.20
2023,04,27,06,12,7.20
2023,04,27,06,13,7.20
2023,04,27,06,14,7.20
2023,04,27,06,15,7.20
2023,04,27,06,16,7.20
2023,04,27,06,17,7.20
2023,04,27,06,18,7.20
2023,04,27,06,19,7.20
2023,04,27,06,20,7.20
2023,04,27,06,21,7.20
2023,04,27,06,22,7.20
2023,04,27,06,23,7.20
2023,04,27,06,24,7.20
2023,04,27,06,25,7.20
2023,04,27,06,26,7.20
2023,04,27,06,27,7.20
2023,04,27,06,28,7.20
2023,04,27,06,29,7.20
2023,04,27,06,30,7.20
2023,04,27,06,31,7.20
2023,04,27,06,32,7.20
2023,04,27,06,33,7.20
2023,04,27,06,34,7.20
2023,04,27,06,35,7.20
2023,04,27,06,36,7.20
2023,04,27,06,37,7.20
2023,04,27,06,38,7.20
2023,04,27,06,39,7.20
2023,04,27,06,40,7.20
2023,04,27,06,41,7.20
2023,04,27,06,42,7.20
2023,04,27,06,43,7.20
2023,04,27,06,44,7.20
2023,04,27,06,45,7.30
2023,04,27,06,46,7.30
2023,04,27,06,47,7.30
2023,04,27,06,48,7.30
2023,04,27,06,49,7.30
2023,04,27,06,50,7.20
2023,04,27,06,51,7.20
2023,04,27,06,52,7.20
2023,04,27,06,53,7.20
2023,04,27,06,54,7.20
2023,04,27,06,55,7.20
2023,04,27,06,56,7.20
2023,04,27,06,57,7.20
2023,04,27,06,58,7.30
2023,04,27,06,59,7.30
2023,04,27,07,00,7.30
2023,04,27,07,01,7.30
2023,04,27,07,02,7.30
2023,04,27,07,03,7.30
2023,04,27,07,04,7.30
2023,04,27,07,05,7.30
2023,04,27,07,06,7.30
2023,04,27,07,07,7.30
2023,04,27,07,08,7.30
2023,04,27,07,09,7.30
2023,04,27,07,10,7.30
2023,04,27,07,11,7.30
2023,04,27,07,12,7.30
2023,04,27,07,13,7.30
2023,04,27,07,14,7.30
2023,04,27,07,15,7.30
2023,04,27,07,16,7.30
2023,04,27,07,17,7.30
2023,04,27,07,18,7.30
2023,04,27,07,19,7.30
2023,04,27,07,20,7.30
2023,04,27,07,21,7.30
2023,04,27,07,22,7.40
2023,04,27,07,23,7.40
2023,04,27,07,24,7.40
2023,04,27,07,25,7.40
2023,04,27,07,26,7.40
2023,04,27,07,27,7.40
2023,04,27,07,28,7.40
2023,04,27,07,29,7.40
2023,04,27,07,30,7.40
2023,04,27,07,31,7.40
2023,04,27,07,32,7.40
2023,04,27,07,33,7.40
2023,04,27,07,34,7.40
2023,04,27,07,35,7.40
2023,04,27,07,36,7.40
2023,04,27,07,37,7.40
2023,04,27,07,38,7.40
2023,04,27,07,39,7.40
2023,04,27,07,40,7.40
2023,04,27,07,41,7.40
2023,04,27,07,42,7.40
2023,04,27,07,43,7.50
2023,04,27,07,44,7.50
2023,04,27,07,45,7.50
2023,04,27,07,46,7.50
2023,04,27,07,47,7.60
2023,04,27,07,48,7.60
2023,04,27,07,49,7.60
2023,04,27,07,50,7.60
2023,04,27,07,51,7.60
2023,04,27,07,52,7.60
2023,04,27,07,53,7.60
2023,04,27,07,54,7.60
2023,04,27,07,55,7.60
2023,04,27,07,56,7.60
2023,04,27,07,57,7.60
2023,04,27,07,58,7.60
2023,04,27,07,59,7.60
2023,04,27,08,00,7.60
2023,04,27,08,01,7.60
2023,04,27,08,02,7.60
2023,04,27,08,03,7.70
2023,04,27,08,04,7.60
2023,04,27,08,05,7.70
2023,04,27,08,06,7.70
2023,04,27,08,07,7.70
2023,04,27,08,08,7.70
2023,04,27,08,09,7.70
2023,04,27,08,10,7.70
2023,04,27,08,11,7.70
2023,04,27,08,12,7.70
2023,04,27,08,13,7.80
2023,04,27,08,14,7.70
2023,04,27,08,15,7.70
2023,04,27,08,16,7.70
2023,04,27,08,17,7.80
2023,04,27,08,18,7.80
2023,04,27,08,19,7.80
2023,04,27,08,20,7.90
2023,04,27,08,21,7.90
2023,04,27,08,22,7.90
2023,04,27,08,23,7.90
2023,04,27,08,24,8.00
2023,04,27,08,25,8.00
2023,04,27,08,26,8.00
2023,04,27,08,28,7.90
2023,04,27,08,29,7.90
2023,04,27,08,30,7.90
2023,04,27,08,31,8.00
2023,04,27,08,32,8.00
2023,04,27,08,33,8.00
2023,04,27,08,34,8.00
2023,04,27,08,35,8.00
2023,04,27,08,36,8.00
2023,04,27,08,37,8.00
2023,04,27,08,38,8.00
2023,04,27,08,39,8.00
2023,04,27,08,40,8.00
2023,04,27,08,41,8.00
2023,04,27,08,42,8.00
2023,04,27,08,44,8.00
2023,04,27,08,45,8.10
2023,04,27,08,46,8.00
2023,04,27,08,47,8.00
2023,04,27,08,48,8.00
2023,04,27,08,49,8.00
2023,04,27,08,50,8.00
2023,04,27,08,51,8.00
2023,04,27,08,52,7.90
2023,04,27,08,53,7.90
2023,04,27,08,54,7.90
2023,04,27,08,56,8.00
2023,04,27,08,58,8.10
2023,04,27,08,59,8.10
2023,04,27,09,00,8.10
2023,04,27,09,01,8.20
2023,04,27,09,02,8.20
2023,04,27,09,04,8.20
2023,04,27,09,05,8.30
2023,04,27,09,07,8.30
2023,04,27,09,08,8.30
2023,04,27,09,09,8.40
2023,04,27,09,10,8.40
2023,04,27,09,11,8.40
2023,04,27,09,12,8.40
2023,04,27,09,13,8.40
2023,04,27,09,14,8.40
2023,04,27,09,15,8.50
2023,04,27,09,16,8.50
2023,04,27,09,17,8.50
2023,04,27,09,19,8.60
2023,04,27,09,20,8.60
2023,04,27,09,21,8.60
2023,04,27,09,22,8.60
2023,04,27,09,23,8.70
2023,04,27,09,25,8.70
2023,04,27,09,26,8.80
2023,04,27,09,27,8.80
2023,04,27,09,28,8.80
2023,04,27,09,29,8.80
2023,04,27,09,31,8.80
2023,04,27,09,32,8.80
2023,04,27,09,33,8.80
2023,04,27,09,34,8.80
2023,04,27,09,36,8.80
2023,04,27,09,37,8.80
2023,04,27,09,38,8.80
2023,04,27,09,39,8.80
2023,04,27,09,40,8.90
2023,04,27,09,41,8.90
2023,04,27,09,42,8.90
2023,04,27,09,43,9.00
2023,04,27,09,44,9.00
2023,04,27,09,45,9.00
2023,04,27,09,46,9.00
2023,04,27,09,48,9.10
2023,04,27,09,49,9.10
2023,04,27,09,50,9.00
2023,04,27,09,51,9.00
2023,04,27,09,52,8.90
2023,04,27,09,53,8.90
2023,04,27,09,54,8.90
2023,04,27,09,55,8.90
2023,04,27,09,56,8.90
2023,04,27,09,57,9.00
2023,04,27,09,58,9.00
2023,04,27,09,59,9.00
2023,04,27,10,00,9.00
2023,04,27,10,01,9.10
2023,04,27,10,03,9.10
2023,04,27,10,04,9.10
2023,04,27,10,05,9.10
2023,04,27,10,06,9.20
2023,04,27,10,07,9.20
2023,04,27,10,09,9.30
2023,04,27,10,10,9.30
2023,04,27,10,11,9.40
2023,04,27,10,13,9.50
2023,04,27,10,14,9.60
2023,04,27,10,15,9.70
2023,04,27,10,16,9.70
2023,04,27,10,17,9.80
2023,04,27,10,18,9.90
2023,04,27,10,19,10.00
2023,04,27,10,20,10.10
2023,04,27,10,21,10.10
2023,04,27,10,22,10.20
2023,04,27,10,23,10.30
2023,04,27,10,24,10.30
2023,04,27,10,25,10.30
2023,04,27,10,26,10.30
2023,04,27,10,27,10.40
2023,04,27,10,29,10.40
2023,04,27,10,30,10.40
2023,04,27,10,31,10.50
2023,04,27,10,32,10.60
2023,04,27,10,33,10.60
2023,04,27,10,34,10.70
2023,04,27,10,35,10.70
2023,04,27,10,36,10.80
2023,04,27,10,37,10.80
2023,04,27,10,38,10.90
2023,04,27,10,39,11.00
2023,04,27,10,40,11.10
2023,04,27,10,41,11.10
2023,04,27,10,42,11.20
2023,04,27,10,43,11.30
2023,04,27,10,44,11.30
2023,04,27,10,45,11.40
2023,04,27,10,46,11.40
2023,04,27,10,47,11.40
2023,04,27,10,48,11.50
2023,04,27,10,49,11.50
2023,04,27,10,50,11.60
2023,04,27,10,51,11.60
2023,04,27,10,52,11.70
2023,04,27,10,53,11.70
2023,04,27,10,54,11.80
2023,04,27,10,55,11.80
2023,04,27,10,56,11.90
2023,04,27,10,57,11.90
2023,04,27,10,59,12.10
2023,04,27,11,00,12.10
2023,04,27,11,01,12.10
2023,04,27,11,02,12.20
2023,04,27,11,03,12.20
2023,04,27,11,05,12.20
2023,04,27,11,06,12.20
2023,04,27,11,07,12.20
2023,04,27,11,08,12.30
2023,04,27,11,09,12.30
2023,04,27,11,10,12.40
2023,04,27,11,11,12.60
2023,04,27,11,12,12.70
2023,04,27,11,13,12.70
2023,04,27,11,14,12.80
2023,04,27,11,15,12.80
2023,04,27,11,16,12.90
2023,04,27,11,17,13.00
2023,04,27,11,18,13.10
2023,04,27,11,19,13.20
2023,04,27,11,20,13.30
2023,04,27,11,21,13.40
2023,04,27,11,22,13.50
2023,04,27,11,23,13.60
2023,04,27,11,25,13.70
2023,04,27,11,26,13.70
2023,04,27,11,28,13.80
2023,04,27,11,29,13.80
2023,04,27,11,30,13.90
2023,04,27,11,31,13.90
2023,04,27,11,32,13.90
2023,04,27,11,33,13.90
2023,04,27,11,34,13.90
2023,04,27,11,35,13.90
2023,04,27,11,37,13.90
2023,04,27,11,38,14.00
2023,04,27,11,39,14.10
2023,04,27,11,41,14.20
2023,04,27,11,42,14.30
2023,04,27,11,43,14.30
2023,04,27,11,44,14.30
2023,04,27,11,46,14.30
2023,04,27,11,47,14.30
2023,04,27,11,49,14.40
2023,04,27,11,50,14.40
2023,04,27,11,52,14.60
2023,04,27,11,54,14.70
2023,04,27,11,55,14.70
2023,04,27,11,58,14.70
2023,04,27,11,59,14.80
2023,04,27,12,00,14.90
2023,04,27,12,01,15.10
2023,04,27,12,02,15.20
2023,04,27,12,03,15.20
2023,04,27,12,04,15.20
2023,04,27,12,05,15.20
2023,04,27,12,06,15.20
2023,04,27,12,08,15.30
2023,04,27,12,09,15.40
2023,04,27,12,10,15.50
2023,04,27,12,12,15.70
2023,04,27,12,13,15.80
2023,04,27,12,15,15.90
2023,04,27,12,16,16.00
2023,04,27,12,17,16.10
2023,04,27,12,18,16.20
2023,04,27,12,19,16.30
2023,04,27,12,20,16.30
2023,04,27,12,21,16.40
2023,04,27,12,22,16.50
2023,04,27,12,23,16.60
2023,04,27,12,24,16.60
2023,04,27,12,25,16.60
2023,04,27,12,26,16.70
2023,04,27,12,27,16.70
2023,04,27,12,28,16.70
2023,04,27,12,29,16.70
2023,04,27,12,30,16.70
2023,04,27,12,31,16.70
2023,04,27,12,32,16.80
2023,04,27,12,33,16.80
2023,04,27,12,34,16.90
2023,04,27,12,36,17.00
2023,04,27,12,38,17.20
2023,04,27,12,39,17.20
2023,04,27,12,40,17.30
2023,04,27,12,42,17.40
2023,04,27,12,43,17.50
2023,04,27,12,45,17.60
2023,04,27,12,47,17.60
2023,04,27,12,48,17.60
2023,04,27,12,49,17.60
2023,04,27,12,50,17.50
2023,04,27,12,52,17.50
2023,04,27,12,53,17.60
2023,04,27,12,54,17.60
2023,04,27,12,55,17.70
2023,04,27,12,56,17.70
2023,04,27,12,57,17.80
2023,04,27,12,59,17.90
2023,04,27,13,00,17.90
2023,04,27,13,01,18.00
2023,04,27,13,03,18.10
2023,04,27,13,05,18.10
2023,04,27,13,06,18.10
2023,04,27,13,07,18.20
2023,04,27,13,08,18.20
2023,04,27,13,09,18.30
2023,04,27,13,10,18.40
2023,04,27,13,11,18.40
2023,04,27,13,12,18.40
2023,04,27,13,14,18.30
2023,04,27,13,15,18.40
2023,04,27,13,16,18.30
2023,04,27,13,17,18.30
2023,04,27,13,18,18.30
2023,04,27,13,19,18.40
2023,04,27,13,20,18.40
2023,04,27,13,22,18.40
2023,04,27,13,23,18.40
2023,04,27,13,24,18.40
2023,04,27,13,25,18.40
2023,04,27,13,26,18.50
2023,04,27,13,27,18.60
2023,04,27,13,28,18.70
2023,04,27,13,29,18.70
2023,04,27,13,30,18.70
2023,04,27,13,31,18.60
2023,04,27,13,32,18.60
2023,04,27,13,33,18.70
2023,04,27,13,34,18.80
2023,04,27,13,36,19.10
2023,04,27,13,37,19.10
2023,04,27,13,39,18.90
2023,04,27,13,40,18.90
2023,04,27,13,41,18.90
2023,04,27,13,43,18.90
2023,04,27,13,45,19.00
2023,04,27,13,46,19.10
2023,04,27,13,48,19.20
2023,04,27,13,49,19.20
2023,04,27,13,50,19.20
2023,04,27,13,51,19.20
2023,04,27,13,52,19.20
2023,04,27,13,53,19.30
2023,04,27,13,54,19.30
2023,04,27,13,55,19.30
2023,04,27,13,56,19.30
2023,04,27,13,57,19.40
2023,04,27,13,58,19.50
2023,04,27,13,59,19.60
2023,04,27,14,01,19.70
2023,04,27,14,02,19.80
2023,04,27,14,03,19.80
2023,04,27,14,04,19.80
2023,04,27,14,05,19.80
2023,04,27,14,06,19.80
2023,04,27,14,07,19.80
2023,04,27,14,08,19.80
2023,04,27,14,09,19.80
2023,04,27,14,11,19.80
2023,04,27,14,12,19.80
2023,04,27,14,13,19.80
2023,04,27,14,14,19.80
2023,04,27,14,15,19.80
2023,04,27,14,16,19.80
2023,04,27,14,17,19.80
2023,04,27,14,18,19.90
2023,04,27,14,19,19.90
2023,04,27,14,20,19.90
2023,04,27,14,21,19.90
2023,04,27,14,22,19.80
2023,04,27,14,23,19.80
2023,04,27,14,24,19.70
2023,04,27,14,25,19.70
2023,04,27,14,26,19.60
2023,04,27,14,27,19.60
2023,04,27,14,28,19.60
2023,04,27,14,30,19.70
2023,04,27,14,31,19.80
2023,04,27,14,32,19.80
2023,04,27,14,33,19.80
2023,04,27,14,35,19.70
2023,04,27,14,37,19.70
2023,04,27,14,38,19.80
2023,04,27,14,40,19.90
2023,04,27,14,41,20.10
2023,04,27,14,42,20.20
2023,04,27,14,43,20.20
2023,04,27,14,44,20.20
2023,04,27,14,45,20.20
2023,04,27,14,46,20.20
2023,04,27,14,47,20.10
2023,04,27,14,49,20.10
2023,04,27,14,50,20.10
2023,04,27,14,51,20.20
2023,04,27,14,52,20.30
2023,04,27,14,53,20.20
2023,04,27,14,54,20.20
2023,04,27,14,55,20.20
2023,04,27,14,56,20.30
2023,04,27,14,57,20.30
2023,04,27,14,58,20.30
2023,04,27,14,59,20.40
2023,04,27,15,00,20.50
2023,04,27,15,02,20.70
2023,04,27,15,03,20.70
2023,04,27,15,04,20.70
2023,04,27,15,05,20.70
2023,04,27,15,06,20.70
2023,04,27,15,07,20.70
2023,04,27,15,08,20.60
2023,04,27,15,09,20.60
2023,04,27,15,10,20.70
2023,04,27,15,11,20.70
2023,04,27,15,12,20.60
2023,04,27,15,14,20.70
2023,04,27,15,15,20.70
2023,04,27,15,16,20.70
2023,04,27,15,17,20.70
2023,04,27,15,18,20.70
2023,04,27,15,19,20.70
2023,04,27,15,20,20.70
2023,04,27,15,21,20.70
2023,04,27,15,22,20.70
2023,04,27,15,24,20.60
2023,04,27,15,25,20.60
2023,04,27,15,27,20.70
2023,04,27,15,28,20.70
2023,04,27,15,30,20.80
2023,04,27,15,31,20.80
2023,04,27,15,33,20.90
2023,04,27,15,34,20.90
2023,04,27,15,35,20.90
2023,04,27,15,36,20.90
2023,04,27,15,37,20.80
2023,04,27,15,38,20.80
2023,04,27,15,40,20.80
2023,04,27,15,41,20.80
2023,04,27,15,42,20.80
2023,04,27,15,43,20.80
2023,04,27,15,44,20.80
2023,04,27,15,45,20.80
2023,04,27,15,46,20.80
2023,04,27,15,48,20.90
2023,04,27,15,49,20.90
2023,04,27,15,50,20.80
2023,04,27,15,51,20.80
2023,04,27,15,52,20.90
2023,04,27,15,53,20.90
2023,04,27,15,54,20.80
2023,04,27,15,55,20.80
2023,04,27,15,57,20.70
2023,04,27,15,58,20.70
2023,04,27,15,59,20.80
2023,04,27,16,00,20.80
2023,04,27,16,02,20.80
2023,04,27,16,04,20.80
2023,04,27,16,05,20.80
2023,04,27,16,07,20.80
2023,04,27,16,08,20.80
2023,04,27,16,09,20.80
2023,04,27,16,11,21.00
2023,04,27,16,13,21.20
2023,04,27,16,14,21.30
2023,04,27,16,15,21.30
2023,04,27,16,17,21.30
2023,04,27,16,19,21.40
2023,04,27,16,20,21.50
2023,04,27,16,21,21.40
2023,04,27,16,23,21.50
2023,04,27,16,25,21.70
2023,04,27,16,26,21.70
2023,04,27,16,27,21.70
2023,04,27,16,28,21.70
2023,04,27,16,29,21.80
2023,04,27,16,30,21.80
2023,04,27,16,31,21.80
2023,04,27,16,33,21.80
2023,04,27,16,34,21.70
2023,04,27,16,35,21.80
2023,04,27,16,36,21.80
2023,04,27,16,37,21.90
2023,04,27,16,38,22.00
2023,04,27,16,39,22.20
2023,04,27,16,41,22.30
2023,04,27,16,42,22.40
2023,04,27,16,43,22.40
2023,04,27,16,44,22.50
2023,04,27,16,46,22.70
2023,04,27,16,48,22.70
2023,04,27,16,49,22.70
2023,04,27,16,50,22.70
2023,04,27,16,51,22.70
2023,04,27,16,52,22.70
2023,04,27,16,53,22.70
2023,04,27,16,54,22.60
2023,04,27,16,55,22.40
2023,04,27,16,57,22.20
2023,04,27,16,58,22.20
2023,04,27,16,59,22.20
2023,04,27,17,00,22.20
2023,04,27,17,01,22.20
2023,04,27,17,02,22.20
2023,04,27,17,03,22.30
2023,04,27,17,05,22.40
2023,04,27,17,06,22.50
2023,04,27,17,07,22.50
2023,04,27,17,08,22.50
2023,04,27,17,09,22.50
2023,04,27,17,10,22.60
2023,04,27,17,11,22.60
2023,04,27,17,12,22.60
2023,04,27,17,14,22.70
2023,04,27,17,15,22.70
2023,04,27,17,16,22.60
2023,04,27,17,18,22.40
2023,04,27,17,19,22.40
2023,04,27,17,20,22.40
2023,04,27,17,21,22.50
2023,04,27,17,22,22.50
2023,04,27,17,24,22.40
2023,04,27,17,25,22.30
2023,04,27,17,26,22.20
2023,04,27,17,27,22.10
2023,04,27,17,28,21.90
2023,04,27,17,29,21.90
2023,04,27,17,30,21.90
2023,04,27,17,31,21.90
2023,04,27,17,32,22.00
2023,04,27,17,33,22.00
2023,04,27,17,34,22.10
2023,04,27,17,35,22.10
2023,04,27,17,36,22.10
2023,04,27,17,37,22.10
2023,04,27,17,38,22.10
2023,04,27,17,39,22.00
2023,04,27,17,40,21.80
2023,04,27,17,41,21.70
2023,04,27,17,42,21.70
2023,04,27,17,43,21.60
2023,04,27,17,44,21.70
2023,04,27,17,45,21.70
2023,04,27,17,46,21.80
2023,04,27,17,47,21.80
2023,04,27,17,48,21.90
2023,04,27,17,50,22.00
2023,04,27,17,52,22.10
2023,04,27,17,53,22.10
2023,04,27,17,55,22.10
2023,04,27,17,56,22.10
2023,04,27,17,57,22.10
2023,04,27,17,58,22.10
2023,04,27,17,59,22.10
2023,04,27,18,00,22.10
2023,04,27,18,01,22.10
2023,04,27,18,02,22.10
2023,04,27,18,04,22.20
2023,04,27,18,05,22.20
2023,04,27,18,06,22.10
2023,04,27,18,07,22.10
2023,04,27,18,08,21.90
2023,04,27,18,09,21.80
2023,04,27,18,10,21.80
2023,04,27,18,11,21.60
2023,04,27,18,14,21.10
2023,04,27,18,15,20.90
2023,04,27,18,16,20.80
2023,04,27,18,17,20.60
2023,04,27,18,18,20.50
2023,04,27,18,19,20.40
2023,04,27,18,20,20.30
2023,04,27,18,23,20.30
2023,04,27,18,24,20.30
2023,04,27,18,25,20.30
2023,04,27,18,26,20.30
2023,04,27,18,28,20.30
2023,04,27,18,29,20.30
2023,04,27,18,30,20.20
2023,04,27,18,31,20.20
2023,04,27,18,32,20.10
2023,04,27,18,34,20.00
2023,04,27,18,35,20.00
2023,04,27,18,36,19.90
2023,04,27,18,37,19.90
2023,04,27,18,38,19.80
2023,04,27,18,39,19.80
2023,04,27,18,40,19.80
2023,04,27,18,42,20.00
2023,04,27,18,43,20.00
2023,04,27,18,44,20.10
2023,04,27,18,45,20.10
2023,04,27,18,46,20.10
2023,04,27,18,48,20.20
2023,04,27,18,49,20.30
2023,04,27,18,50,20.30
2023,04,27,18,51,20.30
2023,04,27,18,52,20.30
2023,04,27,18,53,20.30
2023,04,27,18,54,20.30
2023,04,27,18,55,20.30
2023,04,27,18,57,20.30
2023,04,27,18,58,20.30
2023,04,27,18,59,20.30
2023,04,27,19,00,20.30
2023,04,27,19,01,20.20
2023,04,27,19,02,20.20
2023,04,27,19,03,20.10
2023,04,27,19,04,20.10
2023,04,27,19,05,20.10
2023,04,27,19,06,20.10
2023,04,27,19,07,20.00
2023,04,27,19,08,20.00
2023,04,27,19,09,20.00
2023,04,27,19,10,20.00
2023,04,27,19,11,20.00
2023,04,27,19,12,20.00
2023,04,27,19,13,19.90
2023,04,27,19,14,19.90
2023,04,27,19,15,19.90
2023,04,27,19,16,19.90
2023,04,27,19,17,19.80
2023,04,27,19,18,19.80
2023,04,27,19,19,19.80
2023,04,27,19,20,19.80
2023,04,27,19,21,19.80
2023,04,27,19,22,19.80
2023,04,27,19,24,19.80
2023,04,27,19,25,19.80
2023,04,27,19,26,19.70